Weather History for Watertown, NY

Change the Weather History Date:

Sunday, October 13, 2013

  Actual Average Record
Temperature  
Mean Temperature 60 °F 49 °F  
Max Temperature 72 °F 59 °F 84 °F (1983)
Min Temperature 48 °F 39 °F 22 °F (2012)
Degree Days  
Heating Degree Days 5 16  
Month to date heating degree days 102 182  
Since 1 July heating degree days 376 456  
Cooling Degree Days 0 0  
Month to date cooling degree days 0 0  
Year to date cooling degree days 481 359  
Growing Degree Days 10 (Base 50)    
Moisture  
Dew Point 51 °F    
Average Humidity 68    
Maximum Humidity 83    
Minimum Humidity 53    
Precipitation  
Precipitation 0.06 in 0.12 in 1.23 in (2005)
Month to date precipitation 1.58 1.64  
Year to date precipitation 26.20 27.16  
Sea Level Pressure  
Sea Level Pressure 30.26 in    
Wind  
Wind Speed 4 mph (SSW)    
Max Wind Speed 16 mph    
Max Gust Speed 23 mph    
Visibility 10 miles    
Events      
T = Trace of Precipitation, MM = Missing Value Source: NWS Daily Summary

Daily Weather History Graph

Daily Weather History Graph

Search for Another Location

Airport:

Trip Planner

Search our weather history database for the weather conditions in past years. The results will help you decide how hot, cold, wet, or windy it might be!

Date:

Astronomy

Oct. 13, 2013 Rise Set
Actual Time 7:16 AM EDT 6:23 PM EDT
Civil Twilight 6:47 AM EDT 6:52 PM EDT
Nautical Twilight 6:14 AM EDT 7:25 PM EDT
Astronomical Twilight 5:40 AM EDT 7:59 PM EDT
Moon 3:23 PM EDT (10/13) 1:12 AM EDT (10/13)
Length of Visible Light 12h 04m
Length of Day
11h 06m
Waxing Gibbous, 69% of the Moon is Illuminated
Oct 13
Waxing Gibbous
Oct 18
Full
Oct 26
Last Quarter
Nov 3
New
Nov 10
First Quarter

Hourly Weather History & Observations

Time (EDT) Temp. Dew Point Humidity Pressure Visibility Wind Dir Wind Speed Gust Speed Precip Events Conditions
12:56 AM 61.0 °F 50.0 °F 67% 30.24 in 10.0 mi SSE 8.1 mph 19.6 mph N/A   Clear
1:56 AM 59.0 °F 50.0 °F 72% 30.25 in 10.0 mi SE 5.8 mph - N/A   Clear
2:56 AM 59.0 °F 48.9 °F 69% 30.24 in 10.0 mi SSE 6.9 mph - N/A   Clear
3:56 AM 57.9 °F 48.9 °F 72% 30.25 in 10.0 mi Variable 4.6 mph - N/A   Clear
4:56 AM 55.9 °F 48.0 °F 75% 30.27 in 10.0 mi Calm Calm - N/A   Clear
5:56 AM 52.0 °F 46.9 °F 83% 30.28 in 10.0 mi Calm Calm - N/A   Clear
6:56 AM 50.0 °F 45.0 °F 83% 30.30 in 10.0 mi Calm Calm - N/A   Clear
7:56 AM 55.9 °F 48.0 °F 75% 30.30 in 10.0 mi Calm Calm - N/A   Clear
8:56 AM 60.1 °F 48.0 °F 64% 30.31 in 10.0 mi Calm Calm - N/A   Clear
9:56 AM 64.0 °F 48.9 °F 58% 30.30 in 10.0 mi Variable 5.8 mph 16.1 mph N/A   Clear
10:56 AM 68.0 °F 50.0 °F 52% 30.30 in 10.0 mi Variable 6.9 mph - N/A   Clear
11:56 AM 70.0 °F 52.0 °F 53% 30.29 in 10.0 mi Variable 6.9 mph - N/A   Scattered Clouds
12:56 PM 69.1 °F 52.0 °F 54% 30.27 in 10.0 mi SW 8.1 mph - N/A   Overcast
1:56 PM 70.0 °F 52.0 °F 53% 30.26 in 10.0 mi SSW 6.9 mph - N/A   Overcast
2:56 PM 69.1 °F 53.1 °F 57% 30.25 in 10.0 mi SSW 8.1 mph - N/A   Overcast
3:56 PM 71.1 °F 53.1 °F 53% 30.24 in 10.0 mi SSW 9.2 mph - N/A   Partly Cloudy
4:56 PM 70.0 °F 53.1 °F 55% 30.23 in 10.0 mi Variable 5.8 mph - N/A   Overcast
5:56 PM 68.0 °F 53.1 °F 59% 30.24 in 10.0 mi Calm Calm - N/A   Overcast
6:56 PM 66.9 °F 53.1 °F 61% 30.25 in 10.0 mi Calm Calm - N/A   Overcast
7:56 PM 64.0 °F 54.0 °F 70% 30.25 in 10.0 mi Calm Calm - N/A   Overcast
8:56 PM 64.9 °F 54.0 °F 68% 30.25 in 10.0 mi Calm Calm - N/A   Overcast
9:56 PM 66.9 °F 52.0 °F 59% 30.25 in 10.0 mi SSW 3.5 mph - N/A   Overcast
10:56 PM 66.9 °F 51.1 °F 57% 30.24 in 10.0 mi South 6.9 mph - N/A   Overcast
11:56 PM 66.0 °F 52.0 °F 60% 30.25 in 10.0 mi SW 6.9 mph - N/A   Overcast